Location: Dalton
(34.7700°N, 84.9700°W)
Time: 00:30:13
(UTC-05:00)

Envisat - Pass Details

Date: 13 October 2017
Orbit: 764 x 766 km, 98.2° (Epoch: 15 December)

Event Time Altitude Azimuth Distance (km) Brightness Sun altitude
Exits shadow 22:37:18 12° 312° (NW) 2,151 5.8 -43.1°
Drops below altitude 10° 22:37:51 10° 316° (NW) 2,307 6.0 -43.2°
Sets 22:40:39 0° 331° (NNW) 3,238 6.8 -43.8°
